カタログに戻る

DELTA 1 DEB

運用中SSO
NORAD 10832·DEBRIS·🇺🇸 United States

打ち上げ Jul 29, 1976 から Vandenberg Space Force Base

Loading…

次のパス (今後24時間)

TLE

最新Source: Space-Track

元期: Sep 13, 2026, 09:01 UTC

1 10832U 76077CC  26256.37596316 -.00000022  00000-0  19804-3 0  9992
2 10832 102.2776 179.3777 0120979  30.5015  91.5235 12.20123706232426

AllMySatでDELTA 1 DEBをリアルタイム追跡

Download on the App Store